STARLINK-35244, 65829

Orbit data source: Space-Track

STARLINK-35244, 65829 is a payload satellite owned by SpaceX/Seattle (US) in LEO that was launched on Mon, 29 Sep 2025 UTC via an FALCON 9 launch vehicle from the Air Force Western Test Range (AFWTR). Payload-class satellites include a variety of spacecraft equipped with specific instruments for various scientific and technological missions. These include communications satellites like Starlink; space stations such as the ISS; scientific satellites like the Hubble; Earth observation satellites from companies like Planet Labs, Umbra, and HawkEye 360; GPS; miniature CubeSats for education and research; and military/defense satellites.

Loading next visibility...
Identifier
65829, 2025-221G
Orbit
LEO
Country
Flag of USUS
Related business
Manufacturer
SpaceX/Seattle
Mission
Operational spacecraft
Bus & Motor
STARLINK V2MO, Unknown motor
Mass
575 kg wet, ~530 kg dry
Launch date (UTC)
2025-09-29 (3 weeks ago)
Launch vehicle
FALCON 9
Launch site
Air Force Western Test Range (AFWTR)
Object type
Payload
Rocket body
Debris
Shape & HBR
Unknown shape, 17.7 m
Radar Cross Section
RCS unknown

Expand to show TLE details & history
Last TLE update: 7 hours ago

TLE from 7 hours ago
0 STARLINK-35244
1 65829U 25221G   25290.83335647 -.01729372  00000-0 -40669-1 0  9998
2 65829  53.1594  35.5576 0001228  64.9054 180.4925 15.44919940  4178
Epoch: 2025-10-17T20:00Z
TLE epoch observation values (Epoch: 2025-10-17T20:00:01.999Z)
Latitude
-46.87589°
Longitude
-58.32114°
Altitude
448.439 km
Speed
7.642 km/s
True Right ascension
17h 53m 02s
True Declination
-46° 41' 47"
Sunlit
Object was in daylight at epoch
Visualization orbit readout
Latitude
Unknown
Longitude
Unknown
Altitude
Unknown
Speed
Unknown
Apparent Right ascension
Unknown
Apparent Declination
Unknown
Sunlit
N/A
Visualization observer readout
Local Sidereal Time
21:26:16
Azimuth
Unknown
Elevation
Unknown
Doppler factor
Unknown
Orbital elements
Apogee altitude
432.708 km
Perigee altitude
431.035 km
Semi-major axis
6,810.008 km
Eccentricity
0.00012
Inclination
53.1594°
RAAN
35.5576°
Arg. of periapsis
64.9054°
True anomaly
180.49238°
Mean anomaly
180.4925°
Eccentric anomaly
180.49244°
Mean motion
3.86208 °/min
Orbital period
93.21 mins
BSTAR
-0.040669
Loading maneuver chart data...
Computing Atmospheric mass density...
Loading historical data...
Loading historical data...
Loading historical data...
Loading historical data...
Loading historical data...
Loading historical data...
Loading historical data...

Documentation

Showing up to 5 results
|